Theta_e
315 317 317 317 318 318 316 317 317 318 318 318 319 319 318 318 317 317 316 315 315 315
316 315 316 317 318 319 319 319 317 317 317 317 318 318 318 317 316 317 316 316 316 315
302 307 314 317 317 318 319 320 319 317 317 317 317 318 317 318 317 317 317 317 317 317
298 300 302 307 312 316 319 320 320 319 318 317 317 317 317 316 317 316 316 317 317 317
296 297 297 299 301 304 308 314 320 321 320 319 319 318 317 316 316 316 315 316 316 317
293 294 294 296 298 300 302 305 308 315 319 320 320 319 318 318 317 317 316 317 316 317
292 292 292 293 294 296 298 300 303 307 311 316 319 320 319 318 318 318 318 317 318 318
290 291 291 291 291 292 293 296 298 301 304 307 313 317 318 317 319 319 319 319 319 319
287 287 288 289 289 291 291 293 294 296 298 301 305 304 304 307 318 318 317 317 318 318
284 284 286 288 289 290 290 291 292 293 295 296 299 299 299 299 310 315 318 317 317 316
283 284 285 286 287 289 290 290 290 291 292 293 295 295 296 296 302 308 313 316 317 316
281 282 284 284 285 287 288 288 289 289 290 290 292 293 294 295 298 300 304 308 312 313
278 280 282 284 284 286 287 287 288 288 290 289 290 293 294 295 295 295 297 300 296 292
276 277 282 283 284 285 285 286 287 288 289 289 289 291 293 294 293 292 293 296 297 295
Wind_Speed
7 6 6 7 7 6 7 8 9 11 13 15 14 14 13 11 11 12 12 17 14 12
4 6 7 7 6 7 9 8 9 11 12 14 14 14 14 11 14 13 13 14 14 13
6 6 5 6 8 10 11 10 10 10 12 13 14 14 14 14 14 14 13 11 15 15
9 8 6 5 6 8 9 10 12 12 13 14 14 14 14 16 15 16 15 15 15 18
9 9 9 8 7 8 10 10 11 11 13 14 15 14 16 16 15 17 18 18 17 19
8 10 11 11 11 10 9 10 11 11 12 13 14 14 15 17 17 17 18 18 18 19
9 9 9 10 11 11 11 11 11 10 11 12 13 14 14 15 16 17 17 17 17 18
8 8 8 9 10 10 11 10 12 12 12 11 12 10 14 13 16 17 17 18 18 18
9 9 9 10 11 11 11 12 11 12 13 13 9 13 16 16 15 16 16 17 16 16
11 11 12 13 13 13 14 14 13 13 14 15 15 18 18 17 15 16 17 16 16 14
13 14 14 14 12 12 11 13 13 14 13 15 12 17 20 20 16 16 18 18 17 17
11 13 14 14 15 13 13 12 12 12 13 14 14 18 19 17 13 14 16 14 16 15
12 13 14 14 14 12 13 12 11 13 12 13 15 18 20 17 10 13 11 12 9 13
11 13 13 14 13 13 14 14 12 13 12 12 9 13 18 19 11 9 11 10 10 8
Wind_Direction
225 235 234 235 235 234 229 231 224 218 221 225 227 229 224 224 224 222 226 228 224 229
301 250 250 251 247 246 247 245 231 221 223 222 225 224 224 227 226 220 224 226 231 232
342 337 296 266 256 253 253 248 242 230 227 226 226 225 222 230 229 228 225 221 229 231
346 340 330 316 303 292 278 261 252 241 235 231 229 225 226 228 227 222 229 227 222 231
354 345 341 330 322 316 308 301 280 257 245 244 239 227 225 228 227 227 229 230 230 231
4 354 343 334 324 318 311 305 301 293 269 252 246 239 233 232 231 230 230 230 229 233
346 341 333 325 325 325 318 311 304 297 293 284 264 251 241 234 236 238 235 231 231 233
332 332 326 324 328 326 321 318 311 306 295 286 281 270 260 245 239 238 237 239 236 238
334 337 339 331 336 333 335 331 321 314 304 302 293 292 277 260 254 244 244 245 239 236
340 344 341 340 339 339 337 336 334 323 316 316 313 315 315 296 276 263 255 246 249 246
344 336 335 334 333 330 326 328 324 320 318 310 303 312 313 309 304 283 267 259 254 248
331 327 330 331 331 328 322 322 321 312 311 304 303 309 296 293 294 286 280 269 263 256
328 321 326 325 322 319 320 311 312 308 307 304 306 312 303 299 294 285 285 278 266 257
321 316 317 321 322 321 319 315 314 310 310 303 288 302 309 305 297 290 288 283 278 259